Theta_e
302 302 302 302 302 302 303 303 304 304 305 305 305 306 307 307 308 303 296 299 297 291 290 292 293 290 292 291 287 290 288 289 288 284 283 283 283 287 285 287 286 285 284 282 283 281 283 297 296 289 293 296 297 298
302 302 302 302 302 302 302 303 303 304 305 305 305 306 307 307 308 306 297 298 300 294 291 293 296 297 295 294 292 293 291 290 292 286 286 287 285 286 286 282 291 285 289 286 289 290 298 299 296 299 298 296 297 297
300 301 302 302 302 302 302 303 303 304 304 305 305 306 307 307 307 306 299 299 297 293 291 287 289 292 297 297 299 290 289 294 292 296 291 288 285 288 282 284 286 291 294 290 289 294 294 296 300 299 299 297 299 300
300 301 302 302 302 302 302 302 303 303 304 305 305 306 307 306 305 306 299 298 297 294 287 286 296 295 301 302 299 299 296 295 295 295 291 290 287 292 287 287 288 290 293 289 289 293 295 298 299 299 299 300 300 301
300 301 301 302 302 302 302 302 302 303 304 305 306 306 306 306 306 301 295 296 296 292 286 287 293 298 298 301 300 300 297 294 292 291 289 285 292 292 292 290 288 291 289 287 286 293 293 295 299 301 299 299 300 300
301 301 301 301 301 302 302 302 302 303 304 305 305 305 306 306 304 293 288 294 299 299 292 285 292 294 297 300 301 300 293 294 294 293 291 288 290 290 286 282 291 293 296 295 293 298 298 299 300 302 299 300 301 301
301 301 301 300 302 302 302 302 303 303 304 304 304 304 306 306 294 291 289 294 301 299 291 286 287 294 297 297 297 297 296 291 293 291 286 286 288 289 284 284 291 293 294 294 299 299 296 299 297 301 301 302 303 303
301 301 301 301 301 301 302 302 302 303 303 303 303 306 307 306 301 294 296 303 298 292 290 286 285 289 297 293 293 293 292 289 287 286 287 287 286 286 285 291 292 293 293 295 297 300 299 301 300 300 301 301 301 301
302 301 301 301 301 301 301 301 302 303 303 302 304 306 298 294 292 294 306 303 295 291 285 289 285 283 296 294 294 290 289 286 290 289 291 289 284 284 290 292 291 293 292 292 295 297 298 299 299 299 299 300 300 301
302 302 302 301 301 301 301 301 302 302 302 303 298 294 289 294 304 304 295 291 294 295 293 288 293 286 293 293 291 286 288 286 284 289 292 287 287 293 295 294 295 296 295 296 293 293 294 295 298 300 300 300 301 302
303 302 302 301 301 301 301 301 301 302 299 293 291 290 295 301 295 290 286 284 286 284 290 291 289 286 295 289 287 289 285 284 282 287 287 286 286 289 294 296 298 298 298 298 298 297 297 298 298 299 301 302 301 302
303 302 301 301 300 300 301 301 302 292 290 292 294 297 298 291 288 285 281 284 285 283 288 287 288 289 293 292 287 286 284 281 279 288 287 284 289 295 296 297 299 300 300 299 299 298 299 299 300 301 302 304 303 302
302 302 301 301 300 300 301 302 301 300 299 300 296 294 287 286 278 282 280 282 282 287 289 288 286 289 291 287 285 283 274 279 283 278 283 287 292 294 296 297 299 300 301 301 301 301 301 301 301 301 302 305 306 305
302 302 301 301 301 301 301 300 300 298 294 292 289 283 284 281 281 281 282 284 287 287 288 287 285 285 285 283 287 279 281 279 272 272 280 288 292 293 294 296 298 299 300 300 301 302 302 301 300 302 302 304 305 304
301 301 300 300 300 300 300 300 300 294 293 291 286 280 284 288 288 288 288 287 289 289 287 285 285 285 281 283 284 280 278 270 276 280 287 289 291 291 292 294 296 298 300 300 301 302 302 303 303 301 302 303 303 304
301 299 295 298 299 300 299 297 296 295 295 293 290 285 287 286 287 288 288 287 289 287 288 286 283 282 281 279 277 281 280 269 276 284 288 290 290 291 292 293 295 298 300 300 301 302 302 302 303 303 302 302 303 304
299 293 296 298 299 299 298 294 295 297 294 292 287 289 287 286 287 288 288 289 289 288 284 284 283 281 281 275 274 284 282 281 285 288 289 290 290 291 292 294 296 297 297 298 300 302 302 304 304 304 301 302 303 304
295 294 298 298 298 296 293 295 294 294 291 291 286 287 288 289 288 288 289 289 289 287 287 285 286 280 275 276 273 278 284 287 288 289 291 292 292 292 294 294 295 296 296 296 298 301 302 302 302 301 302 305 305 305
297 297 299 299 297 291 288 292 295 288 290 289 289 288 288 288 289 290 289 289 290 290 290 288 285 281 280 283 285 286 286 287 288 290 291 293 293 292 293 293 294 294 295 296 297 299 301 302 302 303 302 302 302 305
300 299 298 298 297 291 290 290 296 290 286 289 289 287 287 287 288 288 288 288 289 288 286 285 285 286 286 289 290 290 290 290 289 289 290 292 293 293 293 292 292 293 294 295 297 296 301 301 302 303 302 300 300 301
295 295 296 296 294 293 291 289 290 289 289 288 290 288 288 287 286 286 287 289 287 286 285 287 288 290 290 291 292 292 291 292 291 291 291 291 294 293 292 293 293 293 292 292 294 296 297 299 301 303 302 301 301 302
293 296 294 295 290 292 289 291 287 290 288 288 287 288 285 281 284 286 287 286 286 288 288 288 290 291 291 291 292 293 293 293 292 292 292 292 292 292 292 292 291 291 292 292 293 294 297 299 300 302 302 301 301 300
294 293 290 289 288 289 287 293 289 289 283 284 284 284 283 282 285 288 284 286 288 291 290 290 291 292 293 294 295 294 295 293 292 292 293 292 293 293 293 292 292 291 291 293 294 295 296 293 298 300 301 301 300 299
294 289 286 286 285 282 288 286 287 283 282 283 282 283 283 284 286 283 283 285 288 289 290 290 291 290 292 292 291 292 292 292 292 293 292 292 291 292 293 293 292 292 293 293 294 295 296 296 294 298 298 297 297 296
285 284 284 281 284 285 284 284 284 280 283 285 284 283 282 284 280 282 283 285 286 287 288 290 289 290 291 291 292 292 293 293 292 291 292 291 292 292 292 292 292 292 293 294 294 294 294 295 294 294 295 294 294 294
279 279 280 281 282 282 283 282 282 282 283 283 283 284 280 281 281 282 283 286 285 285 287 289 289 288 289 292 291 292 295 295 293 291 291 291 292 291 290 290 289 290 293 294 295 294 293 293 292 291 291 291 289 293
274 274 280 285 283 285 281 282 282 280 283 282 281 281 281 281 281 284 286 288 288 290 291 290 291 290 291 292 293 293 292 293 293 293 293 292 292 292 291 289 289 291 293 296 296 294 292 291 290 289 288 289 289 290
280 281 278 280 281 282 281 280 281 281 282 284 284 282 282 282 281 286 288 290 290 290 291 289 290 290 290 290 290 292 293 295 294 292 291 290 290 290 291 292 292 286 293 294 294 293 292 290 289 288 287 287 288 289
281 281 281 280 281 279 280 281 281 283 287 288 284 282 285 289 290 290 291 294 293 290 289 288 289 290 289 289 289 290 292 291 290 287 287 285 285 287 288 290 292 294 293 290 285 287 288 288 287 287 286 286 287 288
279 282 280 280 279 279 282 284 284 288 289 289 288 287 288 289 290 292 291 292 292 290 291 290 290 290 288 288 286 285 285 285 288 287 285 285 285 286 287 288 289 292 294 293 291 289 284 286 284 285 283 282 282 283
282 283 281 280 280 283 285 288 289 286 285 285 286 284 285 286 289 291 289 290 291 291 290 290 291 291 289 287 286 285 285 285 286 286 286 285 285 285 286 287 288 290 291 290 288 286 284 283 282 281 281 281 280 280
280 281 280 279 279 283 287 284 282 283 285 284 283 286 286 287 285 286 289 289 290 290 289 291 290 288 288 286 285 284 283 283 283 284 284 284 284 285 286 287 290 290 288 287 285 283 282 281 280 280 280 279 279 279
279 280 280 281 278 280 284 284 283 282 283 282 284 285 285 285 284 287 291 290 289 288 288 288 287 287 287 287 285 284 283 282 280 280 279 279 279 280 284 286 287 286 285 283 283 282 281 280 279 279 279 279 279 278
Wind_Speed
21 22 22 23 24 25 26 26 25 25 24 24 21 20 18 15 11 1 4 5 2 3 10 7 4 6 5 4 3 5 7 1 2 1 1 3 4 2 3 2 2 2 1 3 3 3 3 15 6 10 7 6 11 10
21 22 22 23 24 25 26 26 26 26 25 23 21 19 17 15 10 2 2 2 3 4 9 4 13 18 13 19 5 2 3 4 2 3 1 3 2 2 2 3 1 2 1 1 3 2 2 9 2 2 5 9 10 13
23 22 22 23 24 25 26 26 27 26 26 24 22 19 16 12 11 3 3 1 1 4 6 4 4 2 3 7 11 4 3 3 2 2 3 3 2 2 3 3 2 3 4 1 5 9 16 16 6 13 14 11 14 14
22 23 22 23 23 25 26 27 27 27 26 25 22 18 15 11 9 6 2 1 1 3 5 8 3 7 2 5 5 12 5 3 2 2 2 3 3 2 2 2 2 2 3 3 3 7 13 8 11 15 20 17 16 17
21 22 22 23 24 25 26 27 27 28 26 25 24 21 15 10 8 2 2 4 4 1 3 6 11 3 2 4 9 8 9 6 1 1 2 3 2 3 1 1 2 2 2 1 2 7 7 13 14 19 19 16 18 19
20 21 22 22 23 25 25 27 28 29 28 26 27 24 16 7 2 2 4 2 6 4 2 5 4 7 5 6 4 6 1 3 2 2 3 3 3 1 1 1 7 9 6 2 4 6 9 17 15 16 16 18 16 17
20 21 21 23 23 24 26 27 28 29 30 29 26 24 15 7 4 3 4 3 8 2 2 5 5 4 4 5 2 2 2 1 1 2 1 2 3 0 1 1 9 9 10 10 10 8 9 11 13 18 18 19 16 15
20 21 21 21 22 24 26 27 27 29 31 30 27 17 0 10 0 3 2 9 5 2 1 2 6 5 4 4 3 3 3 2 2 2 2 2 3 1 2 6 9 12 12 12 10 10 9 13 17 15 14 15 16 14
20 22 22 22 22 22 25 27 28 28 32 31 20 6 3 2 1 3 2 10 1 3 1 1 3 4 5 3 2 4 2 2 2 2 2 3 2 3 5 8 10 11 8 13 15 13 14 14 13 17 14 16 14 13
20 21 22 22 22 22 24 25 27 28 32 20 3 2 2 2 9 5 3 1 1 2 2 3 2 4 2 2 2 3 3 3 3 2 4 2 1 4 7 10 12 11 11 11 13 11 10 14 13 17 17 14 13 10
20 20 22 24 23 22 23 24 25 23 11 6 6 3 5 10 2 2 0 2 1 2 3 4 4 3 0 3 2 2 2 2 2 2 4 3 2 3 10 11 8 9 10 11 12 11 11 12 14 15 19 14 14 11
20 20 22 23 23 23 22 22 17 4 2 5 7 6 4 3 2 1 1 2 1 3 3 3 3 3 1 2 0 2 2 2 2 4 2 3 5 11 10 11 10 8 9 9 10 14 13 11 11 11 15 13 12 15
19 20 22 24 23 24 22 16 17 16 13 2 3 3 1 2 4 4 1 3 2 3 4 2 4 1 1 2 1 2 5 2 3 4 2 3 7 11 12 12 11 11 11 9 11 12 12 11 12 10 13 13 10 13
18 20 21 25 24 24 14 19 18 10 3 2 3 6 4 3 4 5 5 5 6 4 3 1 2 1 1 2 1 1 3 3 4 4 3 3 8 12 13 11 11 13 14 15 12 10 11 12 11 11 11 10 9 11
16 18 21 24 13 15 21 23 21 2 4 3 3 5 6 4 3 3 3 2 4 2 2 0 1 2 2 2 2 2 4 2 4 4 3 4 9 9 10 10 11 10 10 11 11 10 11 10 10 11 10 10 10 10
14 16 6 5 16 23 26 18 1 3 3 3 5 3 2 1 4 2 3 5 2 3 2 2 2 2 0 2 3 1 0 5 5 4 5 4 8 8 8 7 7 10 10 10 11 12 12 13 11 10 9 8 11 11
8 5 7 13 20 26 23 3 2 5 5 5 5 3 4 2 5 4 4 4 2 2 2 2 1 5 2 3 1 4 5 5 5 5 4 5 7 8 8 8 7 8 9 9 10 12 12 12 12 11 8 9 8 11
5 5 13 15 15 11 2 2 3 4 6 5 3 4 3 4 3 3 4 3 4 3 4 4 5 2 4 4 5 6 5 5 4 6 5 6 6 6 5 6 7 6 7 9 9 11 11 12 11 8 14 13 10 8
7 8 16 17 9 5 3 4 2 4 7 3 4 2 3 3 4 3 3 3 3 2 5 3 3 4 5 5 5 4 4 4 4 4 4 6 6 5 6 6 6 6 7 7 7 7 9 10 8 7 10 10 8 7
13 15 19 18 7 3 4 5 2 4 5 4 2 2 4 4 3 3 3 4 4 4 3 5 6 5 6 5 5 5 4 3 2 3 4 4 3 6 5 5 4 6 5 6 6 6 8 8 7 8 8 9 11 11
4 3 7 3 2 4 4 3 4 5 4 3 2 2 4 1 2 3 4 4 3 4 4 5 5 5 5 3 3 4 4 4 4 4 4 4 4 4 4 4 5 4 3 4 6 7 7 7 8 7 7 10 10 12
2 5 3 2 3 4 5 5 4 3 3 4 3 3 3 3 4 4 3 3 5 5 5 5 5 5 4 5 6 6 5 4 4 4 4 2 3 3 4 4 4 5 4 4 5 5 6 7 8 8 7 8 10 11
1 3 2 3 5 5 7 4 4 4 4 4 3 2 3 3 4 1 3 4 5 5 5 5 4 5 5 3 4 3 6 5 4 3 2 2 3 2 2 4 3 4 5 5 4 4 5 8 9 9 8 9 9 10
3 3 4 4 7 5 3 4 3 3 2 1 2 4 3 4 1 0 5 4 4 1 3 5 4 3 2 4 4 4 4 4 3 2 1 1 2 2 2 3 3 3 3 4 3 4 6 7 8 8 10 9 9 10
4 6 4 7 4 4 5 4 4 1 5 5 3 4 4 2 1 3 5 4 3 4 4 3 4 4 4 3 2 3 4 4 5 4 2 1 2 0 1 1 2 2 3 4 4 4 5 6 7 8 10 11 13 12
7 7 10 6 4 5 5 4 5 6 3 4 6 3 2 1 2 6 4 3 3 3 4 6 6 4 4 4 5 4 5 4 4 3 2 3 2 2 2 2 2 3 3 2 3 4 5 5 7 9 10 13 13 12
6 7 4 4 2 2 3 3 2 1 3 5 3 0 1 4 5 4 3 4 4 4 4 3 5 6 5 4 3 1 3 5 4 4 4 3 2 2 1 1 3 3 4 3 4 4 4 5 6 7 7 9 11 10
7 4 8 4 4 3 3 2 3 5 5 3 2 5 4 5 4 2 2 2 3 7 4 2 2 2 2 2 3 4 5 5 6 6 5 4 4 3 4 3 3 5 3 4 3 4 5 5 5 6 9 9 8 8
7 4 4 5 4 4 7 7 6 5 4 4 4 4 4 2 2 2 3 3 3 5 5 1 2 3 4 4 4 4 4 5 8 7 7 3 1 2 3 3 3 3 3 5 8 7 8 6 7 7 7 6 6 7
6 6 5 6 6 9 7 7 4 3 2 3 3 1 2 3 3 1 2 3 3 2 7 6 3 4 5 5 4 5 4 3 1 3 5 5 4 2 1 2 3 2 3 4 5 4 6 6 6 6 8 7 6 6
3 7 4 6 8 10 7 6 3 1 2 3 4 4 5 2 2 1 4 4 5 6 3 3 2 2 4 6 5 6 4 3 3 6 6 4 4 2 3 3 2 1 3 4 5 5 5 6 6 7 9 10 11 8
5 8 6 5 4 4 4 4 4 5 5 4 4 4 3 3 3 3 6 6 3 4 5 3 1 2 3 4 4 4 7 5 3 2 5 4 3 3 1 3 1 4 5 7 7 7 8 7 6 7 8 10 10 11
4 4 4 3 3 4 5 5 3 3 2 3 4 3 2 3 3 4 4 6 4 5 5 4 4 3 5 8 9 7 7 6 8 9 8 7 5 3 3 3 4 7 9 8 7 8 9 11 9 9 9 9 10 10
Wind_Direction
324 326 330 331 332 331 331 332 331 328 328 331 331 328 323 317 310 266 243 181 234 267 285 240 247 224 257 248 279 330 328 70 301 348 267 299 303 330 59 61 95 99 126 195 187 254 286 347 11 63 294 294 315 316
321 323 325 327 329 330 329 330 331 328 328 329 329 325 320 307 300 218 254 183 161 241 259 255 252 244 226 247 285 252 271 292 293 322 327 284 271 335 299 171 287 149 143 66 296 9 309 349 33 17 326 296 318 318
319 322 322 324 326 328 329 328 329 328 328 327 326 323 317 313 314 279 224 154 210 266 286 342 271 318 162 212 213 249 245 248 307 346 322 304 5 296 352 36 332 25 35 348 314 11 333 301 296 338 339 324 320 320
315 318 319 321 324 325 326 327 327 327 328 327 327 325 321 315 304 305 229 152 174 267 296 283 319 320 236 157 188 219 284 317 349 342 292 304 313 324 17 348 8 295 321 314 267 295 320 341 340 330 326 321 329 323
311 314 316 320 322 324 325 326 326 325 325 327 327 326 317 304 287 245 207 218 196 157 275 292 313 289 16 190 184 203 224 236 250 256 283 272 115 294 351 217 280 199 202 145 271 259 273 282 312 316 319 325 328 326
306 310 313 318 321 322 325 325 326 323 322 326 327 323 311 279 147 86 344 240 197 192 288 316 297 293 322 292 253 302 93 166 219 201 223 282 258 141 259 208 25 0 303 274 279 266 251 276 294 301 322 321 321 319
303 306 309 314 319 321 323 324 325 323 322 325 326 320 297 198 131 160 195 235 158 135 286 299 304 269 331 299 349 334 89 115 218 247 242 240 294 166 78 38 337 325 335 325 284 290 295 295 307 308 315 317 316 309
299 302 307 312 317 319 321 324 326 323 321 324 326 324 244 148 224 325 253 181 123 89 71 289 279 324 10 306 348 12 6 27 0 309 321 352 339 356 48 337 330 349 326 303 316 323 291 288 298 309 307 319 321 319
297 301 305 309 314 317 320 324 325 323 319 324 324 138 69 61 107 233 55 113 180 143 230 233 285 294 347 280 16 352 12 11 280 359 346 343 350 50 311 319 317 320 306 292 299 307 305 293 293 301 314 317 321 313
295 301 304 307 312 318 321 324 326 324 319 324 40 24 327 260 316 97 23 21 319 232 178 252 205 268 279 319 37 7 3 4 350 355 297 27 272 277 318 323 322 290 281 286 293 304 323 312 319 311 304 301 303 301
295 300 302 305 309 316 321 324 326 330 346 6 2 322 302 307 83 46 199 104 307 310 236 246 210 268 304 341 340 15 350 316 319 14 342 342 307 304 289 308 279 282 262 267 270 270 271 270 283 282 296 296 300 302
294 299 301 302 306 314 318 319 322 5 266 265 286 289 274 322 39 145 285 322 166 248 266 226 255 222 3 53 31 338 350 18 306 332 330 352 305 309 319 327 327 308 287 274 272 273 275 285 286 288 291 301 299 298
293 298 302 302 304 312 312 309 321 316 307 243 211 245 56 280 26 175 210 302 295 241 248 332 321 354 19 61 38 64 43 283 351 34 18 253 288 324 333 326 322 324 330 310 294 285 283 285 279 279 285 289 311 306
293 298 301 299 304 304 308 316 322 335 290 230 229 289 179 255 247 188 185 200 231 224 276 254 248 113 319 61 292 69 240 67 35 35 269 267 317 319 321 325 328 338 328 332 324 301 290 281 273 274 275 281 291 299
290 295 299 298 289 322 324 320 318 203 195 218 139 244 228 231 244 218 221 287 236 216 144 91 39 106 9 85 30 33 12 332 194 228 231 252 299 299 301 313 316 327 334 333 331 327 324 308 280 269 268 281 292 287
298 307 256 258 330 326 319 321 306 160 234 213 227 267 243 325 277 217 198 254 218 144 94 68 96 62 278 128 65 153 277 233 252 228 246 288 294 298 290 293 296 308 315 317 328 333 337 340 320 288 274 270 279 276
294 240 299 322 326 315 310 257 237 223 224 224 247 212 180 236 223 238 180 237 148 98 228 117 43 220 88 49 232 192 213 218 233 266 270 266 266 285 292 299 317 317 317 319 321 334 339 342 350 341 277 280 269 281
237 265 290 313 329 312 273 236 253 249 245 239 216 223 192 208 204 247 241 190 150 175 140 207 128 152 187 189 262 239 231 249 248 256 271 287 294 308 301 327 325 320 323 323 329 339 347 345 346 3 351 324 297 275
250 270 288 302 306 305 307 281 190 260 242 243 249 223 192 230 232 243 213 187 198 146 122 121 151 195 225 214 222 246 249 224 243 279 284 293 300 322 345 343 333 337 336 333 337 339 340 335 342 348 346 349 333 313
273 279 280 282 280 224 265 264 205 258 269 247 267 242 203 208 224 211 221 177 161 158 161 188 209 213 195 215 198 213 222 212 204 299 299 304 321 356 347 333 319 316 324 339 337 332 348 355 351 352 343 350 349 339
304 277 310 236 180 224 274 271 259 226 277 273 277 189 254 341 238 220 225 152 143 202 218 210 217 232 205 224 200 178 207 179 211 208 235 285 318 323 326 322 340 337 346 332 345 342 344 340 339 339 350 355 352 346
250 322 291 230 230 223 248 231 226 278 268 255 302 207 238 249 233 230 163 166 212 214 198 192 216 208 198 211 203 204 198 184 236 251 265 257 315 329 332 331 343 332 331 330 339 333 333 333 337 342 351 354 358 353
293 199 237 250 234 229 254 155 214 225 233 262 2 277 258 257 231 112 238 226 239 217 201 200 213 192 204 161 147 197 195 187 226 228 248 262 260 254 323 323 332 340 339 328 337 331 338 336 344 350 358 357 1 7
146 242 232 222 200 256 269 238 221 253 251 256 212 263 244 231 26 223 244 240 241 238 185 207 158 115 82 125 188 209 212 176 227 290 3 279 298 290 246 279 322 312 278 278 325 346 355 3 346 357 6 5 18 27
220 225 202 233 231 235 231 241 226 190 241 199 208 259 262 98 170 249 233 251 233 230 223 194 188 187 173 167 140 215 184 158 157 181 283 244 198 265 309 269 291 292 327 352 7 8 3 12 10 8 17 16 12 29
220 230 191 204 217 206 220 236 216 221 210 208 229 244 42 98 256 253 247 247 236 220 198 194 192 182 216 179 153 178 208 168 147 142 233 224 197 159 241 284 323 311 1 1 347 25 34 28 35 27 21 19 11 19
223 252 229 237 219 247 277 263 273 217 241 218 235 294 165 228 244 258 341 19 331 324 295 237 179 180 170 159 222 210 128 147 179 171 137 127 82 58 107 270 291 287 319 27 56 54 56 50 40 46 45 36 23 17
219 208 204 204 195 205 242 254 234 221 228 227 122 196 220 209 242 251 247 285 4 335 324 49 76 104 138 192 148 129 106 104 89 82 72 56 43 31 10 5 39 16 12 43 65 71 66 70 64 55 64 61 41 24
216 207 164 210 215 221 212 206 220 221 202 167 181 229 247 242 202 223 273 307 13 6 308 258 57 94 69 57 73 79 110 143 140 153 172 185 206 323 352 36 70 82 69 64 33 46 52 55 65 67 63 65 59 55
224 168 188 206 206 226 216 191 224 222 210 206 186 298 297 276 266 293 297 315 303 282 283 267 179 146 143 140 127 68 25 15 289 159 166 171 199 207 291 64 63 75 127 120 105 80 50 54 47 45 50 47 42 53
140 172 210 221 243 245 233 233 247 236 216 221 207 197 233 238 301 29 39 340 315 320 273 213 80 86 123 130 136 126 102 15 48 87 95 99 97 41 335 337 348 251 123 111 95 84 78 65 65 67 62 60 55 54
183 194 199 214 251 240 191 203 214 213 221 205 227 195 196 157 183 33 2 346 5 5 344 325 199 141 83 79 74 83 94 98 61 40 102 99 109 107 51 312 354 93 93 92 89 86 81 78 66 61 64 66 63 60
202 188 200 245 301 254 215 167 220 243 185 200 213 166 126 114 97 37 10 8 8 4 8 15 35 58 110 113 115 104 90 88 93 64 53 59 46 29 53 63 81 88 90 89 86 88 87 89 83 76 70 69 66 62